Location: Newark
(47.5833°N, 8.1500°E)
Time: 23:46:02
(UTC+00:00)

Tiros 1 despin weight - Pass Details

Date: 31 October 2020
Orbit: 593 x 642 km, 48.2° (Epoch: 29 November)

Event Time Altitude Azimuth Distance (km) Brightness Sun altitude
Rises 23:32:19 0° 246° (WSW) 2,872 - -56.6°
Reaches altitude 10° 23:34:38 10° 244° (WSW) 1,960 - -56.6°
Maximum altitude 23:39:06 70° 162° (SSE) 643 - -56.4°
Drops below altitude 10° 23:43:32 10° 79° (ENE) 1,939 - -56.2°
Sets 23:45:49 0° 77° (ENE) 2,838 - -56.1°
